Regional Weather Roundup
Issued by NWS

Home | Current Version | Previous Version | Text Only | Print | Product List | Glossary Off
Versions: 1 2 3 4 5 6 7 8 9 10 11 12 13 14 15 16 17 18 19 20 21 22 23 24 25 26 27 28 29 30 31 32 33 34 35 36 37 38 39 40 41 42 43 44 45 46 47 48 49 50

000
ASUS43 KMKX 291111
RWRWI

WISCONSIN REGIONAL WEATHER ROUNDUP
NATIONAL WEATHER SERVICE MILWAUKEE/SULLIVAN WI
600 AM CDT WED JUL 29 2015

NOTE: "FAIR" INDICATES FEW OR NO CLOUDS BELOW 12,000 FEET WITH NO
SIGNIFICANT WEATHER AND/OR OBSTRUCTIONS TO VISIBILITY.

WIZ001-002-006>008-014>016-023>028-291200-
NORTHWEST WISCONSIN

CITY           SKY/WX    TMP DP  RH WIND       PRES   REMARKS
SUPERIOR ARPT  CLEAR     63  51  64 SW10G21   29.73S
ASHLAND        CLEAR     67  50  54 SW13G25   29.75F
HAYWARD        CLEAR     67  49  52 SW13      29.81F
SIREN          CLEAR     65  50  57 W17G29    29.83S
CUMBERLAND     CLEAR     61  52  72 SW12      29.86F
RICE LAKE      CLEAR     64  53  68 SW12      29.89S
CHETEK         CLEAR     64  55  73 S7        29.89S
LADYSMITH      PTCLDY    62  55  79 SW9       29.90S
EAU CLAIRE     PTCLDY    64  56  75 SW8       29.91S
MENOMONIE      CLEAR     65  53  65 SW9       29.91S
NEW RICHMOND   CLEAR     62  53  72 SW10      29.91R
OSCEOLA        CLEAR     67  49  53 SW16G23   29.92R
$$

WIZ003>005-009-010-017-018-291200-
NORTH CENTRAL WISCONSIN

CITY           SKY/WX    TMP DP  RH WIND       PRES   REMARKS
MANITOWISH WTR CLEAR     62  54  75 SW9       29.85S
ARBOR VITAE    CLEAR     64  53  66 SW9       29.87S
WOODRUFF       CLEAR     64  53  66 SW9       29.87S
RHINELANDER    PTCLDY    65  54  67 W9        29.90R
EAGLE RIVER    PTCLDY    63  51  65 SW12G17   29.87R
LAND O LAKES   PTCLDY    65  51  60 SW7       29.86S
PHILLIPS       CLEAR     63  55  74 SW9       29.87F
TOMAHAWK       PTCLDY    62  54  75 CALM      29.91R
MEDFORD        PTCLDY    62  56  80 SW6       29.93R
MERRILL        NOT AVBL
$$

WIZ029-030-035-036-043>047-291200-
CENTRAL WISCONSIN

CITY           SKY/WX    TMP DP  RH WIND       PRES   REMARKS
WAUSAU         MOCLDY    68  57  68 W9        29.91R
MOSINEE        CLEAR     66  59  77 W9        29.95R
MARSHFIELD     MOCLDY    63  56  78 SW6       29.94R
STEVENS POINT  CLOUDY    69  57  66 W7        29.94R
WAUPACA        CLOUDY    76  58  52 W8        29.92R
WAUTOMA        CLOUDY    75  63  66 W7        29.94R
WISC RAPIDS    CLOUDY    70  59  68 W8        29.95R
CAMP DOUGLAS   NOT AVBL
$$

WIZ011>013-019>022-031-037>040-048>050-291200-
NORTHEAST WISCONSIN

CITY           SKY/WX    TMP DP  RH WIND       PRES   REMARKS
ANTIGO         MOCLDY    66  55  67 W8G16     29.92R
SHAWANO        CLOUDY    76  59  55 W6        29.89R
OCONTO         CLOUDY    74  71  89 W14       29.85R
STURGEON BAY   CLOUDY    73  68  83 SW9       29.88R
GREEN BAY      CLOUDY    75  70  84 W9        29.88R
MANITOWOC      MOCLDY    76  72  87 MISG      29.89R
APPLETON       MOCLDY    73  61  64 W13G21    29.92R
CLINTONVILLE   CLOUDY    73  54  49 W8        29.90R
OSHKOSH        CLOUDY    76  65  68 W10       29.91R
$$

WIZ032>034-041-042-053>061-291200-
SOUTHWEST WISCONSIN

CITY           SKY/WX    TMP DP  RH WIND       PRES   REMARKS
LA CROSSE      MOCLDY    70  56  61 W12       29.97R
SPARTA         CLOUDY    67  59  75 W3        29.98R
VIROQUA        MOCLDY    65  60  84 W5        30.00S
BOSCOBEL       CLOUDY    73  65  75 W5        29.99R
PRAIRIE DU CHI CLOUDY    72  63  71 W7        29.99S
PLATTEVILLE    CLOUDY    69  66  90 NW5       30.00S
$$

WIZ056-057-062-063-064-067-068-291200-
SOUTH CENTRAL WISCONSIN

CITY           SKY/WX    TMP DP  RH WIND       PRES   REMARKS
REEDSBURG      CLOUDY    72  68  87 SW5       29.97R
BARABOO/DELLS  CLOUDY    73  64  73 CALM      29.97R
LONE ROCK      CLOUDY    73  69  87 CALM      29.99R
MINERAL POINT  CLOUDY    72  68  88 W5        30.00R
MADISON        HVY RAIN  70  66  87 CALM      29.98R FOG
MIDDLETON      CLOUDY    73  71  92 SW3       29.99R
WATERTOWN      LGT RAIN  73  73 100 W5        29.94S
MONROE         CLOUDY    72  64  78 NW10G24   29.98S
JANESVILLE     MOCLDY    75  73  94 W9        29.95R
$$

WIZ051-052-058>065-066-070>072-291200-
SOUTHEAST WISCONSIN

CITY           SKY/WX    TMP DP  RH WIND       PRES   REMARKS
MILWAUKEE      LGT RAIN  77  72  84 W9        29.91R
WAUKESHA       LGT RAIN  73  72  94 NW12      29.94S FOG
MILWAUKEE/TIMM CLOUDY    75  70  83 W9        29.92S
RACINE         CLOUDY    76  71  85 W8        29.93S
BURLINGTON     CLOUDY    73  71  93 W9        29.93S
KENOSHA        CLOUDY    75  71  87 W7        29.92S
FOND DU LAC    CLOUDY    75  71  87 W6        29.92S
SHEBOYGAN      CLOUDY    75  71  87 W10       29.90R
WEST BEND      RAIN      73  70  88 W10       29.92S
JUNEAU         RAIN      73  72  96 W6        29.95S
$$

LSZ147-162-291200-
LAKE SUPERIOR

STATION/POSITION TIME  TEMP    WIND        PRES    WAVE
                       AIR SEA DIR/SP/G            HT/PER
                 (UTC) (F)     (DEG/KT/KT) (MB)    (FT/S)
W MID LAKE BUOY  1050   67 62  220/ 23/ 27 1005.0F   4/ 5
DEVILS ISLAND    1100   69     220/ 24/ 31 1005.4F
PORT WING        1000   69     200/ 12/ 17 1006.8F
SAXON HARBOR     1040   69                 1007.5F
$$

LMZ867-665-643>646-291200-
LAKE MICHIGAN

STATION/POSITION TIME  TEMP    WIND        PRES    WAVE
                       AIR SEA DIR/SP/G            HT/PER
                 (UTC) (F)     (DEG/KT/KT) (MB)    (FT/S)
CHAMBERS ISLAND  1000   74     180/  3/ 11 1009.8F
S GREEN BAY BUOY 1100   75 75  240/ 16/ 17 1012.6
N MID LAKE BUOY  1050   71 69  200/ 14/ 16 1009.5F   2/ 3
NORTHPORT PIER   1000   72     170/  2/  6 1009.8F
SISTER BAY       1044   75     230/  9/ 12   N/A
ALGOMA LAKESHORE 1012          220/  4/  6   N/A
KEWAUNEE LAKESHO 1000   67     210/  3/  7 1010.5F
SHEBOYGAN LAKESH 1100   76     250/ 12/ 14 1012.3R
PORT WASHINGTON  1000   74     260/  4/  8 1012.9
ATWATER BUOY     1100   74     270/ 10/ 12 1014.1R
MILWAUKEE LAKESH 1000   77     260/  9/ 13   N/A
KENOSHA   LAKESH 1100   77     250/ 10/ 14 1012.5S
$$

TC  - TEMPERATURE IN CELSIUS
VSB - VISIBILITY IN STATUTE MILES
WCI - WIND CHILL INDEX
HX  - HEAT INDEX




USA.gov is the U.S. government's official web portal to all federal, state and local government web resources and services.